Regional Weather Roundup
Issued by NWS Lake Charles, LA

Home | Current Version | Previous Version | Text Only | Print | Product List | Glossary On
Versions: 1 2 3 4 5 6 7 8 9 10 11 12 13 14 15 16 17 18 19 20 21 22 23 24 25 26 27 28
000
ASUS44 KLCH 220910
RWRLCH
REGIONAL WEATHER ROUNDUP
NATIONAL WEATHER SERVICE LAKE CHARLES LA
400 AM CDT SAT JUL 22 2017

Note: "fair" indicates few or no clouds below 12,000 feet with no
significant weather and/or obstructions to visibility.


ACROSS SOUTHEAST TEXAS

CITY           SKY/WX    TMP DP  RH WIND       PRES   REMARKS
BEAUMONT       CLEAR     76  75  97 CALM      29.95S
BEAUMONT CITY  FAIR      78  75  91 MISG      29.96F
ORANGE         MOSUNNY   77  76  99 CALM      29.97F
JASPER           N/A     76  76  98 CALM      29.98F FOG
$$

ACROSS CENTRAL LOUISIANA

CITY           SKY/WX    TMP DP  RH WIND       PRES   REMARKS
LEESVILLE      PTCLDY    75  73  94 CALM      29.96S
FULLERTON      CLOUDY    75  74  96 CALM      29.95S
ALEXANDRIA INT MOCLDY    75  74  96 S6        29.95S FOG
ESLER FIELD    CLOUDY    75  74  96 CALM      29.97S
DERIDDER       FAIR      76  74  95 CALM      29.99S
OAKDALE          N/A     74  73  96 CALM      29.98R FOG
OPELOUSAS      FAIR      74  73  98 CALM      29.98S
$$

ACROSS SOUTHWEST AND SOUTH CENTRAL LOUISIANA

CITY           SKY/WX    TMP DP  RH WIND       PRES   REMARKS
SULPHUR        MOSUNNY   80  78  94 CALM      29.97S
LAKE CHARLES   PTCLDY    80  77  90 CALM      29.95F
CHENNAULT INT  PTCLDY    77  77  98 CALM      29.97S
CAMERON PHI    NOT AVBL
DEQUINCY       FAIR      75  74  97 CALM      29.97R
JENNINGS       PTSUNNY   78  76  94 CALM      29.97S
LAFAYETTE      CLEAR     76  76 100 CALM      29.98S
NEW IBERIA     CLEAR     76  74  93 SE3       29.98S
ABBEVILLE      PTSUNNY   75  75 100 CALM      29.98S THUNDER FOG
PATTERSON      CLOUDY    75  72  90 SW6       29.98F
SALT POINT       N/A     77  74  90 CALM      29.95F
$$

SELECTED SITES ACROSS THE REGION

CITY           SKY/WX    TMP DP  RH WIND       PRES   REMARKS
HOUSTON BUSH   PTCLDY    78  75  90 S5        29.95S
HOUSTON HOBBY  PTCLDY    81  76  84 CALM      29.94F
GALVESTON      PTCLDY    84  77  79 SW7       29.95S
COLLEGE STAT   CLEAR     78  75  90 S3        29.95F
CONROE         PTCLDY    74  73  97 CALM      29.96S
HUNTSVILLE     CLEAR     78  74  87 S5        29.96S
LUFKIN         CLEAR     76  74  93 S6        29.96S
SHREVEPORT     PTCLDY    78  75  90 S3        29.94S
MONROE         PTCLDY    77  74  90 SW3       29.96S
NATCHEZ MS     NOT AVBL
BATON ROUGE    CLEAR     74  72  93 CALM      29.98S
N.O. INTL ARPT CLOUDY    79  78  97 CALM      29.98S
SLIDELL        CLEAR     74  71  91 CALM      29.98S
$$

MARINE REPORTS

STATION/POSITION TIME  SKY/WX   TEMP    WIND        PRES    VSBY
                                AIR SEA DIR/SP/G
                 (UTC)          (F)     (DEG/KT/KT) (MB)    (MI)
BUOY 30 S HIGH I 0750            86 87  210/ 10/ 12 1014.1
WVE H/P(F/S)=  1/ 4

SEA RIM ST PARK  0800            84     220/  6/  7 1014.8F
PORT ARTHUR      0848            83 89  200/  4/  5 1014.5F
SABINE PASS N    0848            82 90  230/  3/  4 1015.8S
TEXAS POINT      NOT AVBL
CALCASIEU PASS   0848            85 89  260/  4/  6 1013.6R
LK CHARLES BEACH 0848            81 87              1015.1R
MARSH ISLAND     NOT AVBL
FRESH WATER LOCK 0848            84 90  190/  7/ 10 1014.7R
AMERADA PASS     0848            76 86     CALM     1014.9F
$$




USA.gov is the U.S. government's official web portal to all federal, state and local government web resources and services.